WetterOnline ( http://www.wetteronline.de )

Wetter aktuell Waldmünchen

Aktuelles Wetter: Waldmünchen (499m)

6-stündlich | Neueste Meldungen
Ortszeit Temperatur Wetter
So, 19.08. 8:00 18.0° C wolkenlos
So, 19.08. 2:00 20.9° C bedeckt
Sa, 18.08. 20:00 21.4° C wolkig
Sa, 18.08. 14:00 28.6° C wolkenlos
Sa, 18.08. 8:00 18.4° C leicht bewölkt
Sa, 18.08. 2:00 14.3° C fast wolkenlos
Fr, 17.08. 20:00 24.6° C wolkenlos
Fr, 17.08. 14:00 27.2° C wolkenlos
Ortszeit Temperatur Wetter
So, 19.08. 10:00 24.8° C leicht bewölkt
So, 19.08. 9:50 24.8° C wolkig
So, 19.08. 9:40 23.4° C wolkig
So, 19.08. 9:30 22.7° C wolkig
So, 19.08. 9:20 22.7° C wolkig
So, 19.08. 9:10 21.5° C wolkig
So, 19.08. 9:00 20.3° C leicht bewölkt
So, 19.08. 8:30 19.4° C wolkenlos
So, 19.08. 8:00 18.0° C wolkenlos
So, 19.08. 7:30 16.0° C wolkenlos
So, 19.08. 7:00 14.4° C fast wolkenlos
Ortszeit Relative Feuchte Sichtweite
So, 19.08. 8:00 76% 14 km
So, 19.08. 2:00 66% 25 km
Sa, 18.08. 20:00 67% 23 km
Sa, 18.08. 14:00 35% 30 km
Sa, 18.08. 8:00 62% 30 km
Sa, 18.08. 2:00 79% 23 km
Fr, 17.08. 20:00 37% 40 km
Fr, 17.08. 14:00 28% 35 km
Ortszeit Relative Feuchte Sichtweite
So, 19.08. 10:00 54% 18 km
So, 19.08. 9:50 54% -
So, 19.08. 9:40 57% -
So, 19.08. 9:30 58% 15 km
So, 19.08. 9:20 58% -
So, 19.08. 9:10 62% -
So, 19.08. 9:00 65% 18 km
So, 19.08. 8:30 67% 16 km
So, 19.08. 8:00 76% 14 km
So, 19.08. 7:30 81% 12 km
So, 19.08. 7:00 89% 10 km
Ortszeit Niederschlagsmenge Niederschlagsart
So, 19.08. 8:00 0.0 l/m2 in 12 Std. -
So, 19.08. 2:00 0.0 l/m2 in 6 Std. -
Sa, 18.08. 20:00 0.1 l/m2 in 12 Std. Regen
Sa, 18.08. 14:00 0.0 l/m2 in 6 Std. -
Sa, 18.08. 8:00 0.0 l/m2 in 12 Std. -
Sa, 18.08. 2:00 0.0 l/m2 in 6 Std. -
Fr, 17.08. 20:00 0.0 l/m2 in 12 Std. -
Fr, 17.08. 14:00 0.0 l/m2 in 6 Std. -
Ortszeit Niederschlagsmenge Niederschlagsart
So, 19.08. 10:00 0.0 l/m2 in 1 Std. -
So, 19.08. 9:50 keine Meldung -
So, 19.08. 9:40 keine Meldung -
So, 19.08. 9:30 0.0 l/m2 in 1 Std. -
So, 19.08. 9:20 keine Meldung -
So, 19.08. 9:10 keine Meldung -
So, 19.08. 9:00 0.0 l/m2 in 1 Std. -
So, 19.08. 8:30 0.0 l/m2 in 1 Std. -
So, 19.08. 8:00 0.0 l/m2 in 1 Std. -
So, 19.08. 7:30 0.0 l/m2 in 1 Std. -
So, 19.08. 7:00 0.0 l/m2 in 1 Std. -
Ortszeit Stärke Spitze Richtung
km/h Bft. km/h Grad Sektor
So, 19.08. 8:00 0 0 22 - -
So, 19.08. 2:00 13 3 19 30° NO
Sa, 18.08. 20:00 4 1 29 40° NO
Sa, 18.08. 14:00 7 2 18 220° SW
Sa, 18.08. 8:00 6 1 30 250° W
Sa, 18.08. 2:00 4 1 11 90° O
Fr, 17.08. 20:00 4 1 29 40° NO
Fr, 17.08. 14:00 13 3 33 70° O
Ortszeit Stärke Spitze Richtung
km/h Bft. km/h Grad Sektor
So, 19.08. 10:00 4 1 7 190° S
So, 19.08. 9:50 4 1 - 190° S
So, 19.08. 9:40 4 1 - 210° SW
So, 19.08. 9:30 4 1 7 230° SW
So, 19.08. 9:20 4 1 - 230° SW
So, 19.08. 9:10 4 1 - 220° SW
So, 19.08. 9:00 4 1 4 240° SW
So, 19.08. 8:30 0 0 4 - -
So, 19.08. 8:00 0 0 7 - -
So, 19.08. 7:30 4 1 7 180° S
So, 19.08. 7:00 6 1 6 180° S
Ortszeit Untergrenze Bedeckung Gattung
total tief tief mittel hoch
So, 19.08. 8:00 - 0/8 0/8 - - -
So, 19.08. 2:00 3000 m 8/8 8/8 - - -
Sa, 18.08. 20:00 3300 m 5/8 5/8 - - -
Sa, 18.08. 14:00 - 0/8 0/8 - - -
Sa, 18.08. 8:00 7800 m 7/8 0/8 - - -
Sa, 18.08. 2:00 3000 m 1/8 1/8 - - -
Fr, 17.08. 20:00 - 0/8 0/8 - - -
Fr, 17.08. 14:00 - 0/8 0/8 - - -
Ortszeit Bedeckungsgrad in Achtel und Wolkenuntergrenze
So, 19.08. 10:00 1(9000m) 7(9000m)
So, 19.08. 9:50 1(9000m) 7(9000m)
So, 19.08. 9:40 3(9000m) 7(9000m)
So, 19.08. 9:30 7(9000m) 7(9000m)
So, 19.08. 9:20 7(9000m) 7(9000m)
So, 19.08. 9:10 7(9000m)
So, 19.08. 9:00 5(9000m)
So, 19.08. 8:30 2(9000m)
So, 19.08. 8:00 keine Wolken
So, 19.08. 7:30 keine Wolken
So, 19.08. 7:00 1(9000m)
Ortszeit Luftdruck NN (hPa) Tendenz (hPa in 3 Std.)
So, 19.08. 8:00 1021 + 0,6
So, 19.08. 2:00 1020 + 0,1
Sa, 18.08. 20:00 1019 + 0,5
Sa, 18.08. 14:00 1017 - 0,6
Sa, 18.08. 8:00 1019 + 1,2
Sa, 18.08. 2:00 1018 + 1,0
Fr, 17.08. 20:00 1013 - 0,1
Fr, 17.08. 14:00 1014 - 0,4
Ortszeit Luftdruck NN (hPa) Tendenz (hPa in 3 Std.)
So, 19.08. 10:00 1020 + 0,2
So, 19.08. 9:50 1020 keine Meldung
So, 19.08. 9:40 1020 keine Meldung
So, 19.08. 9:30 1020 + 0,2
So, 19.08. 9:20 1020 keine Meldung
So, 19.08. 9:10 1020 keine Meldung
So, 19.08. 9:00 1021 + 0,6
So, 19.08. 8:30 1021 + 0,5
So, 19.08. 8:00 1021 + 0,6
So, 19.08. 7:30 1022 + 0,4
So, 19.08. 7:00 1022 + 0,2
Ortszeit Schneehöhe (cm)
So, 19.08. 8:00 -
So, 19.08. 2:00 -
Sa, 18.08. 20:00 -
Sa, 18.08. 14:00 -
Sa, 18.08. 8:00 -
Sa, 18.08. 2:00 -
Fr, 17.08. 20:00 -
Fr, 17.08. 14:00 -
Ortszeit Schneehöhe (cm)
So, 19.08. 10:00 -
So, 19.08. 9:50 -
So, 19.08. 9:40 -
So, 19.08. 9:30 -
So, 19.08. 9:20 -
So, 19.08. 9:10 -
So, 19.08. 9:00 -
So, 19.08. 8:30 -
So, 19.08. 8:00 -
So, 19.08. 7:30 -
So, 19.08. 7:00 -
Link zu dieser Seite / Seite empfehlen

Das Wetter in ...